[[{"header":{"parameterUnit":"m.s-1","parameterCategory":1,"la1":30.2991,"la2":30.254,"lo1":-89.0895,"lo2":-89.0444,"dy":0.0017,"dx":0.0017,"nx":28,"ny":28,"refTime":"2024-09-01T03:00:00:Z","depth":0,"parameterNumber":2,"parameterNumberName":"U-component_of_WINDS"},"data":[0,0,0,0,0,0,0,0,0,0,0,0,0,0,0,0,0,0,0,0,0,0,0,0,0,0,0,0,0,0,0,0,0,0,0,0,0,0,0,0,0,0,0,0,0,0,0,0,0,0,0,0,0,0,0,0,0,0,0.5292,0.5292,0,0.5339,0.534,0.5341,0.5374,0.5374,0.5375,0.5375,0.5423,0.5424,0.5425,0,0,0,0,0,0,0,0,0,0,0,0,0,0.5229,0.523,0.5292,0.5292,0.5293,0.5339,0.534,0.5341,0.5374,0.5374,0.5375,0.5375,0.5422,0.5423,0.5425,0,0,0,0,0,0,0,0,0,0,0,0,0,0.5264,0.523,0.5292,0.5315,0.5318,0.5339,0.534,0.5341,0.5374,0.5374,0.5375,0.5375,0.5422,0.5423,0.5425,0.5426,0,0,0.543,0.543,0,0,0,0,0,0,0,0,0.5262,0.5267,0.5311,0.5314,0.5317,0.5351,0.5335,0.5369,0.5374,0.5353,0.5375,0.5375,0.5398,0.5402,0.541,0.5428,0.543,0.543,0.5431,0.5431,0.5432,0,0,0,0,0,0,0,0.526,0.5265,0.5311,0.5312,0.5315,0.5323,0.5329,0.5342,0.5373,0.5355,0.5357,0.5362,0.54,0.5408,0.5411,0.5431,0.543,0.5431,0.5432,0.5433,0.5453,0.5453,0,0,0,0,0,0,0.5254,0.5262,0.5309,0.5312,0.529,0.5324,0.533,0.534,0.5373,0.5378,0.5362,0.5364,0.5406,0.541,0.5413,0.5417,0.5431,0.5433,0.5434,0.5453,0.5453,0.5452,0,0,0,0,0,0,0.5252,0.5258,0.5307,0.5288,0.5295,0.5325,0.5335,0.534,0.5349,0.5378,0.5384,0.5365,0.5406,0.5411,0.5423,0.5419,0.5433,0.5435,0.5454,0.5453,0.5453,0.5423,0,0,0,0,0,0,0.525,0.5257,0.5258,0.5288,0.5296,0.5316,0.5335,0.5341,0.5352,0.5354,0.5383,0.5388,0.5407,0.542,0.5424,0.5421,0.5436,0.5454,0.5453,0.5453,0.5425,0.5422,0.5419,0,0,0,0,0,0.5248,0.5247,0.5258,0.5263,0.5298,0.5316,0.532,0.5343,0.5351,0.5352,0.5371,0.5387,0.5419,0.5421,0.5426,0.5423,0.5455,0.5454,0.5453,0.5426,0.5422,0.5419,0,0,0,0,0,0,0.5216,0.5252,0.5263,0.5273,0.5291,0.5321,0.5323,0.5338,0.5354,0.5356,0.5383,0.5389,0.5398,0.5412,0.5414,0.5426,0.5439,0.5439,0.5416,0.5413,0.5411,0.5407,0.5437,0,0,0,0,0,0.521,0.5222,0.5253,0.5258,0.5267,0.5293,0.5302,0.5318,0.5338,0.5345,0.5365,0.5383,0.5398,0.5406,0.5421,0.5427,0.5434,0.5428,0.5425,0.5423,0.5422,0.5426,0.5424,0.545,0.545,0.545,0,0,0.5198,0.5219,0.5225,0.5252,0.5268,0.5279,0.53,0.5311,0.532,0.5347,0.5359,0.5374,0.5397,0.5405,0.541,0.5417,0.5416,0.5422,0.5419,0.542,0.5425,0.5422,0.542,0.5449,0.5449,0.5449,0,0,0.5181,0.5198,0.5205,0.522,0.5244,0.5262,0.5264,0.5292,0.5303,0.5316,0.5337,0.5348,0.5372,0.5386,0.5397,0.5386,0.5401,0.5391,0.5376,0.5379,0.5377,0.5376,0.5371,0.5369,0.539,0.539,0.539,0,0.5162,0.5181,0.5206,0.5216,0.5227,0.5253,0.5259,0.5273,0.5301,0.5308,0.5315,0.5346,0.5363,0.5375,0.5373,0.5381,0.5383,0.5387,0.5376,0.5374,0.5373,0.5369,0.5367,0.5389,0.5389,0.5389,0.5389,0,0.5157,0.5169,0.5171,0.5197,0.5209,0.5217,0.5243,0.5251,0.5266,0.5283,0.5296,0.5317,0.5336,0.5341,0.5355,0.5355,0.5359,0.5371,0.5384,0.5369,0.5365,0.5364,0.5386,0.5387,0.5387,0.5388,0,0,0.512,0.516,0.5161,0.5173,0.5201,0.5211,0.5221,0.524,0.5247,0.5265,0.5273,0.5293,0.5304,0.5316,0.5333,0.5336,0.5325,0.5348,0.5349,0.5342,0.5326,0.5316,0.5314,0.5336,0.5336,0.5336,0.5324,0,0.5107,0.5125,0.5148,0.5158,0.517,0.5195,0.5203,0.5221,0.5237,0.5249,0.5268,0.5281,0.5295,0.5303,0.5307,0.5326,0.5322,0.5327,0.5343,0.5343,0.5336,0.5313,0.5302,0.529,0.5323,0.5323,0.5323,0,0.5094,0.5112,0.5123,0.5151,0.5156,0.5163,0.5183,0.5194,0.5215,0.5227,0.524,0.5258,0.5269,0.5281,0.5296,0.5299,0.5307,0.5317,0.5317,0.5319,0.5331,0.5313,0.5287,0.5285,0.5321,0.5321,0.5321,0,0.5066,0.5092,0.5102,0.5112,0.5144,0.5148,0.5162,0.5184,0.5194,0.5211,0.5218,0.5236,0.5245,0.5259,0.5281,0.5288,0.5293,0.5307,0.5303,0.5302,0.5302,0.5301,0.5276,0.5308,0.5308,0.5308,0.5308,0,0.5048,0.5054,0.5089,0.5095,0.5103,0.5129,0.5135,0.5151,0.517,0.518,0.5203,0.5211,0.524,0.5252,0.527,0.5279,0.5283,0.5293,0.5297,0.529,0.5289,0.5295,0.5296,0.5308,0.5308,0.5308,0.5308,0,0.5017,0.5041,0.5054,0.5084,0.5092,0.5095,0.5121,0.5128,0.5146,0.5157,0.5162,0.5189,0.5204,0.5228,0.525,0.5262,0.5268,0.5276,0.526,0.5263,0.5257,0.5257,0.5234,0.5232,0.5266,0.5266,0.5265,0,0.5004,0.5009,0.504,0.5048,0.5061,0.5074,0.5084,0.511,0.512,0.5145,0.5149,0.5166,0.518,0.5203,0.5225,0.5242,0.525,0.5241,0.5252,0.5245,0.5249,0.5248,0.5248,0.5238,0.5237,0.5237,0.5236,0,0.4978,0.4989,0.5004,0.5023,0.5035,0.505,0.5067,0.5073,0.5103,0.5113,0.5128,0.514,0.5162,0.5179,0.5199,0.5213,0.5229,0.5233,0.5232,0.5225,0.5215,0.5219,0.5252,0.5233,0.5233,0.5233,0.5234,0.5234,0.4955,0.496,0.4983,0.4998,0.5014,0.5029,0.5037,0.5056,0.5069,0.509,0.5105,0.5119,0.5141,0.5169,0.5182,0.5194,0.5201,0.5201,0.5201,0.52,0.5197,0.5214,0.5198,0.5198,0.5198,0.5198,0.5198,0,0.4929,0.4945,0.4959,0.4982,0.4994,0.5009,0.5029,0.5038,0.505,0.5069,0.5083,0.5101,0.5117,0.5141,0.5158,0.5163,0.5171,0.5167,0.5166,0.5169,0.519,0.5188,0.516,0.516,0.516,0.516,0.516,0.516,0.4917,0.4927,0.4941,0.4959,0.4975,0.499,0.4999,0.5014,0.5029,0.5048,0.5061,0.5077,0.5097,0.5117,0.5132,0.5138,0.5143,0.5136,0.5145,0.5164,0.5167,0.5171,0.5169,0.5138,0.5138,0.5123,0.5123,0.5123]},{"header":{"parameterUnit":"m.s-1","parameterCategory":1,"la1":30.2991,"la2":30.254,"lo1":-89.0895,"lo2":-89.0444,"dy":0.0017,"dx":0.0017,"nx":28,"ny":28,"refTime":"2024-09-01T03:00:00:Z","depth":0,"parameterNumber":3,"parameterNumberName":"V-component_of_WINDS"},"data":[0,0,0,0,0,0,0,0,0,0,0,0,0,0,0,0,0,0,0,0,0,0,0,0,0,0,0,0,0,0,0,0,0,0,0,0,0,0,0,0,0,0,0,0,0,0,0,0,0,0,0,0,0,0,0,0,0,0,-0.6831,-0.6831,0,-0.6889,-0.689,-0.6891,-0.6933,-0.6933,-0.6934,-0.6934,-0.6995,-0.6996,-0.6997,0,0,0,0,0,0,0,0,0,0,0,0,0,-0.6756,-0.6757,-0.6831,-0.6831,-0.6832,-0.6889,-0.689,-0.6891,-0.6933,-0.6934,-0.6934,-0.6934,-0.6994,-0.6996,-0.6997,0,0,0,0,0,0,0,0,0,0,0,0,0,-0.6799,-0.6758,-0.6831,-0.686,-0.6863,-0.6889,-0.689,-0.6891,-0.6933,-0.6934,-0.6934,-0.6935,-0.6994,-0.6996,-0.6998,-0.6999,0,0,-0.7004,-0.7004,0,0,0,0,0,0,0,0,-0.6797,-0.6802,-0.6855,-0.6858,-0.6862,-0.6904,-0.6886,-0.6927,-0.6933,-0.6907,-0.6934,-0.6935,-0.6964,-0.6969,-0.6979,-0.7002,-0.7004,-0.7004,-0.7005,-0.7006,-0.7006,0,0,0,0,0,0,0,-0.6794,-0.6799,-0.6854,-0.6856,-0.686,-0.6871,-0.6877,-0.6894,-0.6932,-0.6909,-0.6912,-0.6918,-0.6966,-0.6977,-0.698,-0.7005,-0.7004,-0.7005,-0.7007,-0.7007,-0.7033,-0.7033,0,0,0,0,0,0,-0.6786,-0.6797,-0.6852,-0.6856,-0.683,-0.6872,-0.6879,-0.689,-0.6932,-0.6939,-0.6918,-0.692,-0.6973,-0.6978,-0.6983,-0.6987,-0.7006,-0.7007,-0.7009,-0.7034,-0.7033,-0.7033,0,0,0,0,0,0,-0.6784,-0.679,-0.685,-0.6827,-0.6836,-0.6872,-0.6884,-0.6891,-0.6901,-0.6939,-0.6946,-0.6921,-0.6974,-0.698,-0.6995,-0.699,-0.7008,-0.701,-0.7034,-0.7034,-0.7033,-0.6996,0,0,0,0,0,0,-0.6782,-0.679,-0.679,-0.6827,-0.6837,-0.686,-0.6884,-0.6892,-0.6905,-0.6908,-0.6944,-0.695,-0.6975,-0.6992,-0.6997,-0.6993,-0.7012,-0.7035,-0.7034,-0.7033,-0.6998,-0.6994,-0.6991,0,0,0,0,0,-0.6779,-0.6777,-0.679,-0.6796,-0.6838,-0.686,-0.6865,-0.6893,-0.6904,-0.6905,-0.6929,-0.6949,-0.699,-0.6993,-0.6999,-0.6995,-0.7035,-0.7034,-0.7033,-0.6999,-0.6995,-0.6991,0,0,0,0,0,0,-0.6739,-0.6782,-0.6797,-0.6807,-0.6829,-0.6867,-0.6869,-0.6888,-0.6908,-0.691,-0.6944,-0.6952,-0.6963,-0.6981,-0.6984,-0.6999,-0.7015,-0.7015,-0.6987,-0.6983,-0.698,-0.6975,-0.7013,0,0,0,0,0,-0.6731,-0.6745,-0.6783,-0.6788,-0.6798,-0.6832,-0.6842,-0.6862,-0.6887,-0.6896,-0.6921,-0.6945,-0.6963,-0.6974,-0.6993,-0.7001,-0.7009,-0.7002,-0.6998,-0.6995,-0.6995,-0.7001,-0.6998,-0.7029,-0.7029,-0.7029,0,0,-0.6715,-0.6741,-0.6748,-0.678,-0.68,-0.6814,-0.6839,-0.6853,-0.6864,-0.6899,-0.6914,-0.6933,-0.6962,-0.6973,-0.6979,-0.6988,-0.6988,-0.6994,-0.6991,-0.6992,-0.6999,-0.6996,-0.6994,-0.7029,-0.7029,-0.7029,0,0,-0.6693,-0.6714,-0.6721,-0.674,-0.677,-0.6792,-0.6794,-0.6829,-0.6843,-0.6859,-0.6886,-0.6899,-0.693,-0.6949,-0.6963,-0.695,-0.6969,-0.6955,-0.6937,-0.6942,-0.694,-0.6938,-0.6933,-0.6931,-0.6954,-0.6954,-0.6954,0,-0.667,-0.6692,-0.6722,-0.6734,-0.6748,-0.6781,-0.6788,-0.6805,-0.6839,-0.6849,-0.6858,-0.6897,-0.6919,-0.6935,-0.6932,-0.6942,-0.6946,-0.6951,-0.6938,-0.6936,-0.6934,-0.693,-0.6928,-0.6952,-0.6953,-0.6953,-0.6953,0,-0.6662,-0.6677,-0.6679,-0.6711,-0.6725,-0.6735,-0.6767,-0.6778,-0.6796,-0.6818,-0.6834,-0.6861,-0.6886,-0.6892,-0.691,-0.6911,-0.6916,-0.6931,-0.6947,-0.6929,-0.6926,-0.6924,-0.695,-0.695,-0.6951,-0.6951,0,0,-0.6615,-0.6665,-0.6665,-0.668,-0.6716,-0.6728,-0.6739,-0.6764,-0.6773,-0.6795,-0.6806,-0.6832,-0.6846,-0.6862,-0.6883,-0.6888,-0.6876,-0.6902,-0.6904,-0.6896,-0.6879,-0.6867,-0.6864,-0.6889,-0.6889,-0.6889,-0.6876,0,-0.6599,-0.6621,-0.6649,-0.6661,-0.6676,-0.6707,-0.6718,-0.6741,-0.6761,-0.6777,-0.68,-0.6817,-0.6835,-0.6845,-0.6851,-0.6876,-0.6872,-0.6877,-0.6899,-0.69,-0.6891,-0.6863,-0.685,-0.6837,-0.6875,-0.6875,-0.6875,0,-0.6582,-0.6603,-0.6617,-0.6652,-0.6659,-0.6668,-0.6693,-0.6707,-0.6734,-0.6749,-0.6767,-0.679,-0.6804,-0.6819,-0.684,-0.6842,-0.6853,-0.6867,-0.6867,-0.687,-0.6886,-0.6865,-0.6834,-0.6832,-0.6873,-0.6873,-0.6874,0,-0.6547,-0.6579,-0.6592,-0.6604,-0.6645,-0.665,-0.6667,-0.6695,-0.6708,-0.673,-0.6739,-0.6763,-0.6776,-0.6794,-0.6823,-0.6831,-0.684,-0.6857,-0.6853,-0.6852,-0.6853,-0.6852,-0.6823,-0.6861,-0.6861,-0.6861,-0.6861,0,-0.6525,-0.6532,-0.6576,-0.6584,-0.6593,-0.6626,-0.6634,-0.6655,-0.6679,-0.6692,-0.6721,-0.6732,-0.677,-0.6786,-0.6809,-0.6823,-0.6828,-0.6841,-0.6847,-0.6838,-0.6836,-0.6845,-0.6847,-0.686,-0.686,-0.686,-0.686,0,-0.6487,-0.6516,-0.6532,-0.657,-0.658,-0.6585,-0.6618,-0.6627,-0.6649,-0.6665,-0.6671,-0.6706,-0.6727,-0.6757,-0.6787,-0.6803,-0.6813,-0.6822,-0.6803,-0.6807,-0.68,-0.68,-0.6775,-0.6774,-0.6812,-0.6812,-0.6811,0,-0.6471,-0.6477,-0.6516,-0.6526,-0.6542,-0.6559,-0.6573,-0.6605,-0.6618,-0.665,-0.6656,-0.6678,-0.6698,-0.6729,-0.6758,-0.6781,-0.6792,-0.6782,-0.6795,-0.6787,-0.6792,-0.6791,-0.6792,-0.6778,-0.6777,-0.6777,-0.6777,0,-0.6439,-0.6454,-0.6472,-0.6496,-0.6511,-0.6531,-0.6553,-0.656,-0.6598,-0.6611,-0.6632,-0.6648,-0.6678,-0.6701,-0.6728,-0.6746,-0.6768,-0.6772,-0.6772,-0.6763,-0.6752,-0.6758,-0.6794,-0.6772,-0.6773,-0.6773,-0.6773,-0.6774,-0.6411,-0.6419,-0.6447,-0.6467,-0.6487,-0.6507,-0.6517,-0.6541,-0.6559,-0.6586,-0.6605,-0.6625,-0.6653,-0.6692,-0.671,-0.6726,-0.6735,-0.6736,-0.6736,-0.6735,-0.6732,-0.6749,-0.6731,-0.6732,-0.6732,-0.6732,-0.6732,0,-0.6381,-0.6401,-0.6419,-0.6449,-0.6464,-0.6483,-0.6509,-0.6521,-0.6538,-0.6562,-0.6581,-0.6606,-0.6628,-0.6659,-0.6683,-0.6691,-0.6701,-0.6696,-0.6696,-0.67,-0.6722,-0.672,-0.6687,-0.6687,-0.6687,-0.6687,-0.6687,-0.6687,-0.6367,-0.6381,-0.6399,-0.6423,-0.6443,-0.6463,-0.6476,-0.6494,-0.6514,-0.654,-0.6558,-0.6579,-0.6606,-0.6633,-0.6654,-0.6663,-0.667,-0.6662,-0.6673,-0.6694,-0.6698,-0.6702,-0.67,-0.6663,-0.6663,-0.6649,-0.6649,-0.6649]}]]